sat.trackr.live / text

‹ back to catalog

TIMED

NORAD 26998 · 2001-055B

PAYLOAD ACTIVE UNKNOWN

§ Identity

Operator
Country
US
Launch date
2001-12-07
Launch site
AFWTR
Launch vehicle
Mass (kg)
RCS (m²)
2.72

Purposes: science

External: N2YO · Heavens-Above · Gunter

§ Orbital elements

Epoch: 2026-09-12T21:59:47.138784Z

Period
96.29 min
Inclination
74.0666°
Eccentricity
0.0001921
Mean motion
14.95451722 rev/d
Perigee alt
579.6 km
Apogee alt
582.3 km
Semi-major
6,959.1 km
B*
8.2214e-5
RAAN
58.3510°
Arg perigee
236.6347°
Mean anomaly
123.4654°
Rev number
34,393

§ Raw data

TIMED1 26998U 01055B   26255.91651781  .00000870  00000+0  82214-4 0  99982 26998  74.0666  58.3510 0001921 236.6347 123.4654 14.95451722343938

JSON: /api/v1/satellites/26998 · /tle

For live sub-satellite position, see the globe view (requires WebGL).

§ Visibility from observer

Set your observer location to see the next 7 days of passes ≥ 10°. The values pass through the URL so the page stays shareable.

No JS? Fill the form by hand. The geolocation button needs JavaScript.